Tracking 30970 objects as of 3-Jul-2025
HD Live streaming from Space Station
objects crossing your sky now

FENGYUN 1C DEB

Track FENGYUN 1C DEB now!
10-day predictions


NORAD ID: 33674
Int'l Code: 1999-025DFK
Perigee: 831.7 km
Apogee: 1,137.4 km
Inclination: 98.6 °
Period: 104.6 minutes
Semi major axis: 7355 km
RCS: 0.0036 m2 (small)
Launch date: May 10, 1999
Source: People's Republic of China (PRC)
Launch site: Taiyaun Space Center, China (TSC)

Note: This is SATELLITE DEBRIS
Your satellite tracking list
FENGYUN 1C DEB
Track 1 satellite(s)




NASA's NSSDC Master Catalog

Two Line Element Set (TLE):
1 33674U 99025DFK 25183.14257347  .00001318  00000-0  11903-2 0  9999
2 33674  98.6136 248.4961 0207769 321.0013  37.6310 13.76189528861143
Source of the keplerian elements: AFSPC